Weather in Vannovskoye

Russia / Krasnodar Krai     45°19′20″N   40°13′49″E
temp.,
°C
wind,
m/s
gust,
m/s
humid.,
%
clouds,
%
prec.,
mm/h
press.,
hPa
HPBL,
m
5 december, sun
sun500:00+9sw2260100 0.0 101014
03:00+8ssw2263100 0.0 101028
06:00+10sw61576100 1.7 1010539
09:00+9s5116898 2.0 1011272
12:00+13sw81656100 0.0 1010992
15:00+12w71381100 0.0 10121215
18:00+8wnw4118682 0.0 1015461
21:00+7nw368972 0.0 1016195
6 december, mon
mon600:00+7sse008796 0.0 101795
03:00+7s1188100 0.0 101832
06:00+8ssw1187100 0.0 101817
09:00+8se228628 0.0 101975
12:00+12ese226990 0.0 1019405
15:00+12ese246699 0.0 1019257
18:00+10ese357289 0.0 102079
21:00+9ese47665 0.0 1020110
7 december, tue
tue700:00+8ese47675 0.0 101996
03:00+7ese46665 0.0 101986
06:00+7ese46688 0.0 101882
09:00+8ese411635 0.0 1017179
12:00+15ese510436 0.0 1015309
15:00+15e6114549 0.0 1013337
18:00+10e513564 0.0 1013250
21:00+9e613665 0.0 1011263
8 december, wed
wed800:00+7e510735 0.0 1010205
03:00+6e478012 0.0 1009122
06:00+5e368695 0.0 1009106
09:00+6e47796 0.0 1009156
12:00+10e3563100 0.0 1008186
15:00+11ne3563100 0.0 1008102
18:00+9e4770100 0.0 1008127
21:00+9ssw1167100 0.0 101111
9 december, thu
thu900:00+10ssw1160100 0.0 101110
03:00+8ssw3383100 0.0 101330
06:00+8sw3592100 0.0 1014113
09:00+8sw31092100 0.0 1016337
12:00+11w697055 0.0 1017820
15:00+11w576899 0.0 1018999
18:00+9wsw387926 0.0 1020238
21:00+7wsw39869 0.0 1021241